GEESAT-5 H

Last updated on Sat Sep 13 2025 00:02:08 GMT+0000 (Coordinated Universal Time)

1 65557U 25201H 25254.01553069 .00000147 00000+0 39329-4 0 9996 2 65557 49.9965 255.0100 0015329 309.1969 50.7610 14.90786516 334
UTC large
Height (km)
Speed (km/s)
/
Latitude / Longitude
Inclination (degrees)
Orbital Period (minutes)
Azimuth
Elevation
Range (km)
Doppler Factor

Next 0 passes for location: London (51.5072 / 0.1276)

Sorry there are no passes over London.